Other Public Products
Issued by NWS Charleston, SC

Home | Current Version | Previous Version | Text Only | Print | Product List | Glossary On
Versions: 1 2 3 4 5 6 7 8 9 10 11 12 13 14 15 16 17 18 19 20 21 22 23 24 25 26 27 28 29 30 31 32 33 34 35 36 37 38 39 40 41 42 43 44 45 46 47 48 49 50
000
FPUS82 KCHS 301227
OPUCHS

TEST...KCHS/KSAV Gateway Observations...TEST
National Weather Service Charleston SC
800 AM EDT TUE MAY 30 2017

NOTE: "fair" indicates few or no clouds below 12,000 feet with no
significant weather and/or obstructions to visibility.

SCZ050-WAZ558-NCZ071-TXZ119-213-PAZ071-DCZ001-FLZ074-172-MI076-
NYZ176-178-MAZ016-IL014-TNZ027-NJZ106-GAZ044-MD014-301300-

...Gateway Observations for Charleston International...

CITY           SKY/WX    TMP DP  RH WIND       PRES   REMARKS
Chas Airport   PTSUNNY   77  70  79 CALM      30.08R
6HR MIN TEMP:  72; 6HR MAX TEMP:  77;

Seattle        CLOUDY    53  50  89 SW3       29.96F
6HR MIN TEMP:  53; 6HR MAX TEMP:  56;

Charlotte      CLOUDY    68  66  93 W6        30.09R VSB 1/2
6HR MIN TEMP:  68; 6HR MAX TEMP:  69; 6HR PCP: TRACE;

Dallas DFW     CLOUDY    68  59  73 N3        30.07R
6HR MIN TEMP:  66; 6HR MAX TEMP:  73;

Dallas Love    CLOUDY    68  62  81 CALM      30.08R
6HR MIN TEMP:  66; 6HR MAX TEMP:  73;

Philladelphia  CLOUDY    57  53  86 E9        30.14R
6HR MIN TEMP:  57; 6HR MAX TEMP:  57;

Wash National  CLOUDY    63  61  93 E10       30.09R
6HR MIN TEMP:  63; 6HR MAX TEMP:  68; 6HR PCP: TRACE;

Baltimore      CLOUDY    59  59 100 E9        30.10R FOG
6HR MIN TEMP:  59; 6HR MAX TEMP:  60; 6HR PCP: TRACE;

Miami          PTSUNNY   84  76  76 SE6       30.12R HX  93
6HR MIN TEMP:  80; 6HR MAX TEMP:  84; 6HR PCP: TRACE;

Detroit        MOSUNNY   62  54  74 SW3       29.93R
6HR MIN TEMP:  55; 6HR MAX TEMP:  62;

Newark         CLOUDY    56  53  90 VRB6      30.16R
6HR MIN TEMP:  55; 6HR MAX TEMP:  57; 6HR PCP: TRACE;

Laguardia      CLOUDY    56  52  86 S9        30.16R
6HR MIN TEMP:  55; 6HR MAX TEMP:  58;

J F K          CLOUDY    56  55  97 SE8       30.18R
6HR MIN TEMP:  55; 6HR MAX TEMP:  56;

Boston Logan   CLOUDY    51  49  92 SE3       30.21R
6HR MIN TEMP:  49; 6HR MAX TEMP:  51;

Ft. Lauderdale PTSUNNY   84  75  74 S6        30.11R HX  92
6HR MIN TEMP:  80; 6HR MAX TEMP:  84;

Chicago O`Hare MOSUNNY   58  47  66 W10       29.95R
6HR MIN TEMP:  54; 6HR MAX TEMP:  60;

Chicago Midway MOSUNNY   59  49  69 W10       29.95R
6HR MIN TEMP:  56; 6HR MAX TEMP:  64;

Houston Bush   MOCLDY    71  69  93 NE7       30.03R
6HR MIN TEMP:  70; 6HR MAX TEMP:  72;

Houston Hobby  PTCLDY    72  69  90 NE7       30.02R
6HR MIN TEMP:  71; 6HR MAX TEMP:  73;

Nashville      MOSUNNY   67  65  93 S3        30.09R
6HR MIN TEMP:  64; 6HR MAX TEMP:  69;

Atlanta        LGT RAIN  68  65  90 SW3       30.13R
6HR MIN TEMP:  67; 6HR MAX TEMP:  70; 6HR PCP: TRACE;


$$

GAZ044-118-TXZ119-213-NCZ071-DCZ001-MDZ014-506-PAZ021-071-NJZ106-
NYZ176-178-MAZ106-OHZ011-021-055-MIZ076-KYZ091-ILZ014-INZ047-
MNZ060-ONZ431-301300-

...Gateway Observations for Savannah International...

CITY           SKY/WX    TMP DP  RH WIND       PRES   REMARKS
Savannah Arpt  PTSUNNY   75  69  81 NW3       30.10R
6HR MIN TEMP:  72; 6HR MAX TEMP:  76;

Atlanta        LGT RAIN  68  65  90 SW3       30.13R
6HR MIN TEMP:  67; 6HR MAX TEMP:  70; 6HR PCP: TRACE;

Charlotte      CLOUDY    68  66  93 W6        30.09R VSB 1/2
6HR MIN TEMP:  68; 6HR MAX TEMP:  69; 6HR PCP: TRACE;

Dallas DFW     CLOUDY    68  59  73 N3        30.07R
6HR MIN TEMP:  66; 6HR MAX TEMP:  73;

Houston Bush   MOCLDY    71  69  93 NE7       30.03R
6HR MIN TEMP:  70; 6HR MAX TEMP:  72;

Wash National  CLOUDY    63  61  93 E10       30.09R
6HR MIN TEMP:  63; 6HR MAX TEMP:  68; 6HR PCP: TRACE;

Wash Dulles    FOG       62  61  96 E7        30.08R VSB 1/2
6HR MIN TEMP:  62; 6HR MAX TEMP:  68; 6HR PCP:  0.01;

Baltimore      CLOUDY    59  59 100 E9        30.10R FOG
6HR MIN TEMP:  59; 6HR MAX TEMP:  60; 6HR PCP: TRACE;

Philadelphia   CLOUDY    57  53  86 E9        30.14R
6HR MIN TEMP:  57; 6HR MAX TEMP:  57;

Newark         CLOUDY    56  53  90 VRB6      30.16R
6HR MIN TEMP:  55; 6HR MAX TEMP:  57; 6HR PCP: TRACE;

Laguardia      CLOUDY    56  52  86 S9        30.16R
6HR MIN TEMP:  55; 6HR MAX TEMP:  58;

J F K          CLOUDY    56  55  97 SE8       30.18R
6HR MIN TEMP:  55; 6HR MAX TEMP:  56;

Boston         CLOUDY    51  49  92 SE3       30.21R
6HR MIN TEMP:  49; 6HR MAX TEMP:  51;

Pittsburg      MOSUNNY   63  59  87 SE3       29.99R
6HR MIN TEMP:  59; 6HR MAX TEMP:  67; 6HR PCP: TRACE;

Akron          MOSUNNY   62  56  80 SW7       29.99R
6HR MIN TEMP:  58; 6HR MAX TEMP:  62; 6HR PCP:  0.07;

Cleveland      MOSUNNY   65  57  75 SW7       29.98R
6HR MIN TEMP:  60; 6HR MAX TEMP:  65; 6HR PCP:  0.01;

Cincinnati     MOSUNNY   64  56  75 SW3       30.03S
6HR MIN TEMP:  60; 6HR MAX TEMP:  66;

Columbus       SUNNY     64  59  85 W5        30.01R
Detroit        MOSUNNY   62  54  74 SW3       29.93R
6HR MIN TEMP:  55; 6HR MAX TEMP:  62;

Chicago O`Hare MOSUNNY   58  47  66 W10       29.95R
6HR MIN TEMP:  54; 6HR MAX TEMP:  60;

Minneapolis    CLOUDY    54  44  69 W8        29.90R
6HR MIN TEMP:  53; 6HR MAX TEMP:  56;

Indianapolis   MOSUNNY   61  54  77 SW8       30.00S
6HR MIN TEMP:  55; 6HR MAX TEMP:  63;

Toronto Canada LGT RAIN  61  54  77 S3        29.90R

$$




USA.gov is the U.S. government's official web portal to all federal, state and local government web resources and services.